EN

Hourly Weather Amecameca de Juarez

Today, 26 January, Tuesday

Time Temperature Precipitation Wind Pressure Humidity
00:00 +11°C° 0 mm 1 mps 554 mmHg 66%
01:00 +11°C° 0 mm 1 mps 553 mmHg 65%
02:00 +11°C° 0 mm 1 mps 553 mmHg 64%
03:00 +11°C° 0 mm 1 mps 553 mmHg 63%
04:00 +10°C° 0 mm 1 mps 553 mmHg 63%
05:00 +10°C° 0 mm 1 mps 553 mmHg 62%
06:00 +12°C° 0 mm 1 mps 555 mmHg 56%
07:00 +14°C° 0 mm 1 mps 556 mmHg 51%
08:00 +15°C° 0 mm 0 mps 557 mmHg 45%
09:00 +18°C° 0 mm 1 mps 557 mmHg 42%
10:00 +20°C° 0 mm 1 mps 558 mmHg 38%
11:00 +20°C° 0 mm 2 mps 558 mmHg 35%
12:00 +21°C° 0 mm 2 mps 558 mmHg 35%
13:00 +21°C° 0 mm 3 mps 557 mmHg 35%
14:00 +21°C° 0 mm 3 mps 557 mmHg 35%
15:00 +20°C° 0 mm 3 mps 556 mmHg 41%
16:00 +18°C° 0 mm 2 mps 555 mmHg 47%
17:00 +16°C° 0 mm 2 mps 555 mmHg 53%
18:00 +15°C° 0 mm 1 mps 555 mmHg 54%
19:00 +14°C° 0 mm 1 mps 555 mmHg 55%
20:00 +13°C° 0 mm 1 mps 555 mmHg 55%
21:00 +13°C° 0 mm 1 mps 555 mmHg 53%
22:00 +13°C° 0 mm 1 mps 555 mmHg 51%
23:00 +12°C° 0 mm 1 mps 555 mmHg 48%

Tomorrow, 27 January, Wednesday

Time Temperature Precipitation Wind Pressure Humidity
00:00 +12°C° 0 mm 1 mps 554 mmHg 48%
01:00 +12°C° 0 mm 1 mps 554 mmHg 47%
02:00 +12°C° 0 mm 1 mps 554 mmHg 47%
03:00 +11°C° 0 mm 1 mps 554 mmHg 48%
04:00 +11°C° 0 mm 1 mps 554 mmHg 50%
05:00 +11°C° 0 mm 1 mps 554 mmHg 52%
06:00 +13°C° 0 mm 1 mps 556 mmHg 49%
07:00 +14°C° 0 mm 1 mps 557 mmHg 45%
08:00 +16°C° 0 mm 1 mps 558 mmHg 42%
09:00 +19°C° 0 mm 1 mps 559 mmHg 38%
10:00 +21°C° 0 mm 1 mps 560 mmHg 35%
11:00 +23°C° 0 mm 2 mps 561 mmHg 31%
12:00 +23°C° 0 mm 2 mps 560 mmHg 31%
13:00 +22°C° 0 mm 3 mps 560 mmHg 32%
14:00 +22°C° 0 mm 3 mps 560 mmHg 33%
15:00 +20°C° 0.5 mm 3 mps 559 mmHg 43%
16:00 +18°C° 0.5 mm 3 mps 558 mmHg 53%
17:00 +14°C° 0.5 mm 3 mps 557 mmHg 64%
18:00 +13°C° 0.2 mm 3 mps 557 mmHg 67%
19:00 +12°C° 0.2 mm 3 mps 558 mmHg 70%
20:00 +11°C° 0.2 mm 3 mps 558 mmHg 73%
21:00 +10°C° 0 mm 3 mps 558 mmHg 74%
22:00 +10°C° 0 mm 3 mps 557 mmHg 76%
23:00 +9°C° 0 mm 3 mps 557 mmHg 77%

Day after tomorrow, 28 January, Thursday

Time Temperature Precipitation Wind Pressure Humidity
00:00 +8°C° 0 mm 3 mps 557 mmHg 77%
01:00 +8°C° 0 mm 3 mps 557 mmHg 77%
02:00 +7°C° 0 mm 3 mps 556 mmHg 77%
03:00 +7°C° 0 mm 2 mps 556 mmHg 77%
04:00 +7°C° 0 mm 2 mps 556 mmHg 76%
05:00 +6°C° 0 mm 2 mps 556 mmHg 75%
06:00 +7°C° 0 mm 2 mps 557 mmHg 70%
07:00 +9°C° 0 mm 2 mps 558 mmHg 64%
08:00 +10°C° 0 mm 2 mps 559 mmHg 59%
09:00 +13°C° 0 mm 2 mps 560 mmHg 52%
10:00 +15°C° 0 mm 1 mps 561 mmHg 46%
11:00 +18°C° 0 mm 1 mps 561 mmHg 39%
12:00 +19°C° 0 mm 1 mps 561 mmHg 38%
13:00 +19°C° 0 mm 2 mps 561 mmHg 37%
14:00 +19°C° 0 mm 2 mps 561 mmHg 35%
15:00 +18°C° 0 mm 2 mps 560 mmHg 42%
16:00 +17°C° 0 mm 2 mps 559 mmHg 49%
17:00 +15°C° 0 mm 2 mps 559 mmHg 56%
18:00 +14°C° 0 mm 2 mps 559 mmHg 62%
19:00 +13°C° 0 mm 1 mps 558 mmHg 69%
20:00 +11°C° 0 mm 1 mps 558 mmHg 76%
21:00 +11°C° 0 mm 1 mps 558 mmHg 77%
22:00 +10°C° 0 mm 1 mps 558 mmHg 78%
23:00 +10°C° 0 mm 1 mps 558 mmHg 79%

29 January, Friday

Time Temperature Precipitation Wind Pressure Humidity
00:00 +10°C° 0 mm 1 mps 557 mmHg 80%
01:00 +9°C° 0 mm 1 mps 557 mmHg 81%
02:00 +9°C° 0 mm 1 mps 557 mmHg 82%
03:00 +9°C° 0 mm 1 mps 556 mmHg 82%
04:00 +9°C° 0 mm 1 mps 556 mmHg 82%
05:00 +8°C° 0 mm 1 mps 556 mmHg 83%
06:00 +10°C° 0 mm 1 mps 557 mmHg 74%
07:00 +11°C° 0 mm 0 mps 558 mmHg 66%
08:00 +12°C° 0 mm 0 mps 559 mmHg 58%
09:00 +15°C° 0 mm 1 mps 560 mmHg 53%
10:00 +18°C° 0 mm 1 mps 560 mmHg 48%
11:00 +18°C° 0 mm 2 mps 561 mmHg 43%
12:00 +18°C° 0 mm 2 mps 560 mmHg 44%
13:00 +18°C° 0 mm 2 mps 559 mmHg 45%
14:00 +18°C° 0 mm 2 mps 558 mmHg 46%
15:00 +17°C° 0 mm 2 mps 557 mmHg 50%
16:00 +16°C° 0 mm 2 mps 557 mmHg 53%
17:00 +15°C° 0 mm 2 mps 556 mmHg 57%
18:00 +14°C° 0 mm 2 mps 556 mmHg 62%
19:00 +13°C° 0 mm 1 mps 556 mmHg 67%
20:00 +12°C° 0 mm 1 mps 556 mmHg 72%
21:00 +11°C° 0 mm 1 mps 556 mmHg 72%
22:00 +11°C° 0 mm 1 mps 556 mmHg 72%
23:00 +11°C° 0 mm 1 mps 556 mmHg 72%

30 January, Saturday

Time Temperature Precipitation Wind Pressure Humidity
00:00 +11°C° 0 mm 1 mps 555 mmHg 73%
01:00 +10°C° 0 mm 1 mps 555 mmHg 73%
02:00 +10°C° 0 mm 1 mps 554 mmHg 74%
03:00 +10°C° 0 mm 1 mps 554 mmHg 74%
04:00 +10°C° 0 mm 1 mps 554 mmHg 74%
05:00 +10°C° 0 mm 1 mps 554 mmHg 75%
06:00 +11°C° 0 mm 1 mps 555 mmHg 68%
07:00 +13°C° 0 mm 1 mps 556 mmHg 61%
08:00 +14°C° 0 mm 0 mps 558 mmHg 54%
09:00 +18°C° 0 mm 1 mps 558 mmHg 47%
10:00 +19°C° 0 mm 1 mps 559 mmHg 40%
11:00 +20°C° 0 mm 2 mps 559 mmHg 33%
12:00 +21°C° 0 mm 2 mps 559 mmHg 31%
13:00 +21°C° 0 mm 2 mps 558 mmHg 29%
14:00 +22°C° 0 mm 3 mps 558 mmHg 28%
15:00 +20°C° 0 mm 2 mps 557 mmHg 33%
16:00 +19°C° 0 mm 2 mps 556 mmHg 38%
17:00 +18°C° 0 mm 1 mps 556 mmHg 43%
18:00 +16°C° 0 mm 1 mps 556 mmHg 47%
19:00 +15°C° 0 mm 2 mps 555 mmHg 52%
20:00 +14°C° 0 mm 2 mps 555 mmHg 57%
21:00 +13°C° 0 mm 2 mps 555 mmHg 57%
22:00 +13°C° 0 mm 1 mps 555 mmHg 57%
23:00 +13°C° 0 mm 1 mps 555 mmHg 57%

31 January, Sunday

Time Temperature Precipitation Wind Pressure Humidity
00:00 +12°C° 0 mm 1 mps 555 mmHg 55%
01:00 +12°C° 0 mm 1 mps 555 mmHg 54%
02:00 +11°C° 0 mm 1 mps 554 mmHg 52%
03:00 +11°C° 0 mm 1 mps 554 mmHg 51%
04:00 +11°C° 0 mm 1 mps 554 mmHg 50%
05:00 +11°C° 0 mm 1 mps 554 mmHg 49%
06:00 +12°C° 0 mm 1 mps 556 mmHg 44%
07:00 +14°C° 0 mm 1 mps 557 mmHg 38%
08:00 +16°C° 0 mm 1 mps 558 mmHg 33%
09:00 +18°C° 0 mm 1 mps 559 mmHg 30%
10:00 +20°C° 0 mm 1 mps 560 mmHg 27%
11:00 +21°C° 0 mm 2 mps 560 mmHg 23%
12:00 +21°C° 0 mm 2 mps 560 mmHg 23%
13:00 +23°C° 0 mm 2 mps 559 mmHg 22%
14:00 +23°C° 0 mm 2 mps 559 mmHg 22%
15:00 +21°C° 0 mm 2 mps 559 mmHg 26%
16:00 +19°C° 0 mm 2 mps 558 mmHg 31%
17:00 +18°C° 0 mm 2 mps 558 mmHg 35%
18:00 +16°C° 0 mm 2 mps 558 mmHg 38%
19:00 +14°C° 0 mm 3 mps 558 mmHg 41%
20:00 +12°C° 0 mm 3 mps 558 mmHg 43%
21:00 +11°C° 0 mm 3 mps 557 mmHg 48%
22:00 +11°C° 0 mm 3 mps 557 mmHg 52%
23:00 +10°C° 0 mm 3 mps 557 mmHg 56%
Show more